Flag for Barbados Weather past 2 weeks in Bridgetown, Barbados

Now
81 °F

Scattered showers. Broken clouds.


Feels Like: 85 °F
Forecast: 81 / 85 °F
Wind: 10 mph from Southeast

Location: Grantley Adams

Current Time: Aug 1, 2014 at 1:12:06 PM

Latest Report: Aug 1, 2014 at 12:00 PM


Visibility: N/A

Pressure: 29.92 "Hg

Humidity: 79%

Dew point: 73 °F

Location of BridgetownLocation

Historic Weather in Bridgetown — Graph

°F

Bridgetown temperature yesterday

Maximum temperature yesterday: 88 °F (at 1:00 PM)
Minimum temperature yesterday: 79 °F (at 2:00 AM)
Average temperature yesterday: 82 °F

Past Weeks' High & Low Weather Summary

 TemperatureHumidityPressure
High88 °F (Jul 24, 3:00 PM)100% (Jul 19, 5:00 PM)30.09 "Hg (Jul 19, 5:00 PM)
Low36 °F (Jul 20, 8:00 AM)66% (Jul 17, 1:00 PM)29.89 "Hg (Aug 1, 3:00 AM)
Average81 °F80%30.00 "Hg
* Reported Jul 17 12:00 Noon — Aug 1 12:00 Noon, Bridgetown, Weather by CustomWeather, © 2014

Note: Actual official high and low records may vary slightly from our data, if they occured in-between our weather recording intervals... More about our weather records

Advertising

Bridgetown weather history for previous 24 hours

 ConditionsComfort  
Time TempWeatherWind HumidityBarometerVisibility
12:00 PM
Aug 1
81 °FScattered showers. Broken clouds.10 mph79%29.92 "HgN/A
11:00 AM84 °FScattered clouds.8 mph70%29.92 "HgN/A
10:00 AM84 °FScattered showers. Scattered clouds.18 mph70%29.92 "HgN/A
9:00 AM84 °FSprinkles. Partly sunny.20 mph70%29.89 "HgN/A
8:00 AM81 °FSprinkles. Scattered clouds.15 mph79%29.89 "HgN/A
7:00 AM81 °FScattered clouds.20 mph79%29.89 "HgN/A
6:00 AM79 °FScattered showers. Broken clouds.14 mph89%29.89 "Hg5 mi
5:00 AM79 °FSprinkles. Passing clouds.16 mph84%29.89 "HgN/A
4:00 AM81 °FPassing clouds.14 mph84%29.89 "HgN/A
3:00 AM81 °FPassing clouds.15 mph84%29.89 "HgN/A
2:00 AM79 °FScattered showers. Passing clouds.12 mph84%29.92 "HgN/A
1:00 AM79 °FPassing clouds.12 mph89%29.92 "HgN/A
12:00 AM81 °FPassing clouds.16 mph84%29.95 "HgN/A
11:00 PM
Jul 31
81 °FPassing clouds.16 mph84%29.95 "HgN/A
10:00 PM81 °FPassing clouds.15 mph84%29.95 "HgN/A
9:00 PM81 °FPassing clouds.14 mph79%29.95 "HgN/A
8:00 PM81 °FPassing clouds.20 mph84%29.95 "HgN/A
7:00 PM81 °FPassing clouds.17 mph84%29.92 "HgN/A
6:00 PM82 °FScattered clouds.17 mph79%29.92 "HgN/A
5:00 PM84 °FPassing clouds.21 mph70%29.92 "HgN/A
4:00 PM82 °FBroken clouds.20 mph79%29.92 "HgN/A
3:00 PM84 °FBroken clouds.17 mph74%29.95 "HgN/A
2:00 PM84 °FScattered clouds.21 mph79%29.95 "HgN/A
1:00 PM88 °FScattered showers. Scattered clouds.20 mph66%29.95 "HgN/A
Weather by CustomWeather, © 2014

See weather overviewHow to use our weather pages